Regional Weather Roundup
Issued by NWS Upton, NY

Current Version | Previous Version | Text Only | Print | Product List | Glossary On
Versions: 1 2 3 4 5 6 7 8 9 10 11 12 13 14 15 16 17 18 19 20 21 22 23 24 25 26 27 28 29 30 31 32 33 34 35 36 37 38 39 40 41 42 43 44 45 46 47 48 49 50
000
ASUS41 KOKX 231018
RWROKX

REGIONAL WEATHER ROUNDUP
NATIONAL WEATHER SERVICE NEW YORK NY
600 AM EDT SAT MAY 23 2015

NOTE: "FAIR" INDICATES FEW OR NO CLOUDS BELOW 12,000 FEET WITH NO
SIGNIFICANT WEATHER AND/OR OBSTRUCTIONS TO VISIBILITY.

NYZ071-072-176-178-NJZ106-104-231100-
NEW YORK CITY METRO AREA


CITY           SKY/WX    TMP DP  RH WIND       PRES   REMARKS
CENTRAL PARK   CLEAR     50  26  39 W6        30.35R
LAGUARDIA APRT CLEAR     50  29  44 NW16G23   30.32R
KENNEDY INTL   CLEAR     51  24  34 NW16      30.32R
NEWARK/LIBERTY CLEAR     49  26  41 NW8       30.34R
BRNX BOT. GARD   N/A     46  28  49 NE5       30.34R
TETERBORO      CLEAR     47  26  44 NW9G18    30.32R
$$

NYZ177-179-078>081-231100-
LONG ISLAND NEW YORK

CITY           SKY/WX    TMP DP  RH WIND       PRES   REMARKS
FARMINGDALE    CLEAR     50  26  39 NW12      30.31R
ISLIP          CLEAR     49  29  46 N10       30.29R
SHIRLEY        CLEAR     48  29  47 N12       30.31R
WESTHAMPTON    CLEAR     49  30  48 N12       30.31R
MONTAUK POINT    N/A     51  31  46 NW18G25   30.29R
$$

NYZ052-065-067-231100-
HUDSON VALLEY

CITY           SKY/WX    TMP DP  RH WIND       PRES   REMARKS
WHITE PLAINS   CLEAR     42  29  59 N7        30.31R
NEWBURGH       CLEAR     41  30  65 NW9       30.33
MONTGOMERY     CLEAR     41  29  62 NW10      30.34R
POUGHKEEPSIE   CLEAR     41  28  60 N3        30.33R
ALBANY         CLEAR     38  26  62 W6        30.33R WCI  33
$$

NJZ001-105-106-008-010-013-015-019>022-104-231100-
NEW JERSEY

CITY           SKY/WX    TMP DP  RH WIND       PRES   REMARKS
NEWARK/LIBERTY CLEAR     49  26  41 NW8       30.34R
TETERBORO      CLEAR     47  26  44 NW9G18    30.32R
CALDWELL       CLEAR     46  26  45 NW6       30.34R
MORRISTOWN     CLEAR     48  27  43 NW5       30.34R
SOMERVILLE     CLEAR     45  28  51 CALM      30.33R
SUSSEX         CLEAR     42  27  55 NW5       30.35R
ANDOVER          N/A     42  28  57 N5        30.34R
TRENTON        CLEAR     46  27  47 N8        30.33R
MILLVILLE      CLEAR     44  37  76 CALM      30.34R
ATLANTIC CITY  CLEAR     47  37  68 CALM      30.34R
WRIGHTSTOWN    CLEAR     45  30  56 N10       30.31R
TOMS RIVER     CLEAR    N/A N/A N/A N5        30.32R
BELMAR         CLEAR     46  25  42 NW9       30.32R
$$

PAZ047>061-062-071-231100-
EASTERN PENNSYLVANIA

CITY           SKY/WX    TMP DP  RH WIND       PRES   REMARKS
PHILADELPHIA   PTCLDY    51  28  41 N9        30.35R
ALLENTOWN      CLEAR     44  27  51 N5        30.36R
SCRANTON       CLEAR     41  27  57 NW7       30.36R
$$

CTZ002-004>006-009-010-012-RIZ004-006-007-MAZ004-011-015-231100-
SOUTHERN NEW ENGLAND
 IN CT

CITY           SKY/WX    TMP DP  RH WIND       PRES   REMARKS
BRADLEY INTL   PTCLDY    44  26  49 W10       30.29R
HARTFORD       CLEAR     46  27  47 W10       30.31R
DANBURY        CLEAR     42  27  55 CALM      30.33R
WTRBRY/OXFORD  CLEAR     37  23  56 N5        30.33R WCI  34
BRIDGEPORT     CLEAR     47  29  49 NW6       30.32R
MERIDEN        PTCLDY    44  29  55 VRB6      30.32R
NEW HAVEN      CLEAR     47  30  51 NW14G20   30.32R
CHESTER        FAIR      45  28  53 NW6       30.31R
GROTON         FAIR      47  28  47 NW10      30.29R
WILLIMANTIC    CLEAR     44  30  57 W6        30.29R

 IN RI

CITY           SKY/WX    TMP DP  RH WIND       PRES   REMARKS
PROVIDENCE     PTCLDY    46  33  60 N8        30.27R
BLOCK ISLAND   CLEAR     48  28  46 NW12G20   30.26R
WESTERLY       CLEAR     47  29  49 VRB5      30.29R

 IN MA

CITY           SKY/WX    TMP DP  RH WIND       PRES   REMARKS
BOSTON         PTCLDY    44  23  43 NW9G21    30.27R
WORCESTER      CLEAR     38  26  62 NW9       30.25R WCI  31
WESTFIELD      CLEAR     40  27  59 W6        30.29R
PROVINCETOWN   PTCLDY    46  30  53 NW21      30.23R
NANTUCKET      CLEAR     51  35  54 NW22G29   30.21R
$$

ANZ330-335-338-340-345-350-353-355-231100-
COASTAL MARINE OBSERVATIONS


STATION/POSITION TIME  SKY/WX   TEMP    WIND        PRES    VSBY  WAVE
                                AIR SEA DIR/SP/G                  HT/PER
                 (UTC)          (F)     (DEG/KT/KT) (MB)    (MI)  (FT/S)
NY HARB ENTRANCE 0950            53 55  320/ 19/ 23 1025.6          3/ 4
4S FIRE IS       0903               54                N/A           3/ 4
20S FIRE ISLAND  0950            53 55  330/ 25/ 29 1024.7          5/ 5
GREAT SOUTH BAY  0900            53 62  320/ 14/ 17   N/A
23SW MTP         0950            51 52  330/ 19/ 23 1024.8          3/ 4
HUDSON CANYON    NOT AVBL
KINGS POINT      0900            52 53  350/ 11/ 18 1025.3
CENTRAL LI SOUND 0930            50 51  330/ 17/ 21   N/A
EASTERN LI SOUND 0900            51     300/ 12/ 16   N/A
ROBBINS REEF     0900            51     320/ 15/ 19 1024.9
$$


>>>>>>>>>>>>>>>>>>>>>>>>>>>> KEY <<<<<<<<<<<<<<<<<<<<<<<<<<<
>                                                          <
>     SKY/WX - SKY CONDITION/PRESENT WEATHER               <
>     TMP    - TEMPERATURE IN FAHRENHEIT                   <
>     DP     - DEWPOINT IN FAHRENHEIT                      <
>     RH     - RELATIVE HUMIDITY IN PERCENT                <
>     WIND   - DIRECTION AND SPEED IN MPH                  <
>     PRES   - MEAN SEA LEVEL PRESSURE IN INCHES OF HG     <
>     WCI    - WIND CHILL INDEX                            <
>     VSB    - VISIBILITY IN MILES                         <
>     HX     - HEAT INDEX                                  <
>     TC     - TEMPERATURE IN CELSIUS                      <
>     VRB    - VARIABLE WIND DIRECTION                     <
>                                                          <
>>>>>>>>>>>>>>>>>>>>>>>>>>>> KEY <<<<<<<<<<<<<<<<<<<<<<<<<<<




USA.gov is the U.S. government's official web portal to all federal, state and local government web resources and services.